[[{"header":{"parameterUnit":"m.s-1","parameterCategory":1,"la1":30.2991,"la2":30.254,"lo1":-89.0895,"lo2":-89.0444,"dy":0.0017,"dx":0.0017,"nx":28,"ny":28,"refTime":"2025-05-28T03:00:00:Z","depth":0,"parameterNumber":2,"parameterNumberName":"U-component_of_WINDS"},"data":[0,0,0,0,0,0,0,0,0,0,0,0,0,0,0,0,0,0,0,0,0,0,0,0,0,0,0,0,0,0,0,0,0,0,0,0,0,0,0,0,0,0,0,0,0,0,0,0,0,0,0,0,0,0,0,0,0,0,1.721,1.7211,0,1.7344,1.7346,1.7348,1.7366,1.7364,1.7363,1.7362,1.7503,1.7508,1.7513,0,0,0,0,0,0,0,0,0,0,0,0,0,1.6972,1.6977,1.721,1.7212,1.7213,1.7344,1.7346,1.7348,1.7366,1.7364,1.7363,1.7361,1.7502,1.7507,1.7513,0,0,0,0,0,0,0,0,0,0,0,0,0,1.7088,1.6978,1.721,1.7238,1.7242,1.7344,1.7346,1.7348,1.7366,1.7364,1.7362,1.736,1.75,1.7507,1.7514,1.7598,0,0,1.7537,1.754,0,0,0,0,0,0,0,0,1.7082,1.7097,1.7232,1.7236,1.7241,1.7336,1.7314,1.7432,1.7367,1.7319,1.7362,1.736,1.7449,1.7461,1.749,1.7605,1.7611,1.7538,1.7542,1.7545,1.7547,0,0,0,0,0,0,0,1.7074,1.7091,1.7263,1.7234,1.7239,1.7245,1.7259,1.7337,1.7394,1.7323,1.7325,1.734,1.7451,1.7483,1.7494,1.7613,1.7537,1.7544,1.7549,1.7551,1.7805,1.7807,0,0,0,0,0,0,1.706,1.7084,1.7259,1.7267,1.7155,1.7251,1.7267,1.7308,1.7393,1.7404,1.7342,1.734,1.7471,1.7485,1.7499,1.7604,1.7545,1.7552,1.7556,1.7803,1.7805,1.7808,0,0,0,0,0,0,1.7055,1.7075,1.7254,1.7176,1.7199,1.7257,1.7303,1.7311,1.7343,1.7407,1.7417,1.7363,1.747,1.7488,1.7574,1.7609,1.7555,1.7562,1.78,1.7803,1.7807,1.7814,0,0,0,0,0,0,1.7048,1.7073,1.7105,1.7177,1.7203,1.7325,1.7305,1.7315,1.7355,1.7355,1.743,1.744,1.747,1.7562,1.7581,1.7618,1.7568,1.7797,1.7801,1.7806,1.781,1.7817,1.7822,0,0,0,0,0,1.7039,1.7102,1.7106,1.7127,1.7244,1.7327,1.7342,1.7374,1.7358,1.7391,1.7432,1.7438,1.7602,1.7571,1.7592,1.7632,1.7795,1.78,1.7805,1.7808,1.7816,1.7822,0,0,0,0,0,0,1.7034,1.7112,1.7118,1.7206,1.7259,1.733,1.7372,1.7381,1.7441,1.7439,1.7477,1.7494,1.7577,1.7613,1.7577,1.7718,1.7697,1.7707,1.7692,1.77,1.7706,1.7695,1.7574,0,0,0,0,0,1.7043,1.7102,1.7168,1.7239,1.7266,1.7314,1.7351,1.7371,1.7429,1.7452,1.7499,1.7556,1.762,1.7662,1.7725,1.7816,1.7833,1.7854,1.7859,1.7864,1.7872,1.7924,1.7934,1.7825,1.7825,1.7824,0,0,1.7062,1.7112,1.7148,1.7239,1.7283,1.7345,1.7333,1.7399,1.7446,1.7463,1.7545,1.7582,1.7648,1.7737,1.7778,1.7769,1.7906,1.7871,1.7874,1.7879,1.793,1.794,1.7949,1.7828,1.7827,1.7827,0,0,1.7129,1.7172,1.7237,1.7281,1.7347,1.7379,1.7395,1.7464,1.7489,1.7572,1.7586,1.7643,1.7753,1.7799,1.7837,1.7922,1.793,1.7942,1.7973,1.8022,1.8031,1.8039,1.807,1.808,1.7949,1.7949,1.7949,0,1.7145,1.7237,1.7269,1.7334,1.7375,1.7392,1.7458,1.75,1.7584,1.7612,1.76,1.7739,1.7784,1.7884,1.7905,1.7935,1.7954,1.7933,1.8027,1.8035,1.8043,1.8073,1.8084,1.795,1.795,1.795,1.795,0,1.7254,1.7318,1.7362,1.7442,1.7487,1.7553,1.7595,1.7638,1.7654,1.7687,1.7773,1.7828,1.7903,1.7928,1.7945,1.8031,1.8023,1.8019,1.7998,1.8054,1.8082,1.8094,1.7952,1.7951,1.7951,1.7951,0,0,1.7321,1.7417,1.7433,1.7469,1.7544,1.7595,1.7662,1.7733,1.7769,1.7827,1.7885,1.7977,1.7974,1.8017,1.8039,1.8083,1.8147,1.8074,1.8076,1.8086,1.8246,1.8249,1.8261,1.8153,1.8155,1.8157,1.8241,0,1.7397,1.7515,1.7546,1.7647,1.7707,1.7724,1.7783,1.7835,1.7869,1.7926,1.7963,1.8028,1.8018,1.8044,1.8088,1.813,1.818,1.8124,1.8208,1.8211,1.8191,1.8276,1.828,1.8356,1.8252,1.8254,1.8255,0,1.7501,1.7559,1.7666,1.7733,1.776,1.7812,1.788,1.7934,1.7995,1.8016,1.8064,1.8082,1.8154,1.8129,1.8229,1.819,1.8226,1.8252,1.8256,1.8265,1.8236,1.8288,1.8381,1.8392,1.8273,1.8272,1.8271,0,1.754,1.7645,1.7723,1.7754,1.7834,1.787,1.7906,1.7964,1.8005,1.8066,1.8093,1.8161,1.8199,1.8252,1.8289,1.8267,1.8386,1.8364,1.8406,1.8405,1.843,1.8428,1.853,1.8453,1.8453,1.8453,1.8452,0,1.7621,1.7686,1.7741,1.7789,1.7863,1.7898,1.797,1.8006,1.8058,1.8114,1.8134,1.8186,1.8231,1.829,1.832,1.8398,1.8415,1.8435,1.8442,1.8433,1.8431,1.8458,1.8454,1.8456,1.8455,1.8455,1.8454,0,1.7677,1.7716,1.7802,1.7871,1.789,1.7941,1.8001,1.8049,1.8082,1.8153,1.8172,1.8226,1.8296,1.8337,1.8427,1.8447,1.8534,1.8538,1.8513,1.8516,1.8556,1.8552,1.8679,1.8698,1.8608,1.8608,1.8609,0,1.7726,1.7776,1.785,1.7889,1.7924,1.7986,1.8028,1.8065,1.8108,1.8181,1.8221,1.8292,1.8351,1.8463,1.8511,1.8579,1.8586,1.8626,1.8596,1.8586,1.8587,1.8584,1.8589,1.8631,1.8632,1.8632,1.8633,0,1.781,1.7827,1.7886,1.7953,1.8002,1.8057,1.8111,1.8141,1.8188,1.8236,1.8307,1.8353,1.8444,1.8515,1.8587,1.8625,1.8637,1.8641,1.8655,1.8647,1.863,1.864,1.8526,1.8638,1.8638,1.8637,1.8637,1.8637,1.7864,1.791,1.7969,1.8035,1.8079,1.8129,1.8178,1.8217,1.8277,1.8353,1.8372,1.8447,1.8508,1.8606,1.8646,1.8706,1.87,1.8719,1.8724,1.8729,1.873,1.862,1.872,1.872,1.8719,1.8719,1.8719,0,1.7949,1.7988,1.8048,1.8123,1.8175,1.818,1.8241,1.8284,1.835,1.8405,1.8462,1.8545,1.8614,1.8667,1.8738,1.8776,1.8784,1.8794,1.8791,1.88,1.8731,1.8713,1.8787,1.8787,1.8786,1.8786,1.8786,1.8786,1.7999,1.8076,1.8101,1.8201,1.824,1.8313,1.8347,1.8394,1.8438,1.8529,1.8586,1.862,1.8675,1.875,1.8814,1.8828,1.8853,1.8862,1.8877,1.8812,1.8805,1.8798,1.8781,1.8868,1.8868,1.8941,1.8942,1.8942]},{"header":{"parameterUnit":"m.s-1","parameterCategory":1,"la1":30.2991,"la2":30.254,"lo1":-89.0895,"lo2":-89.0444,"dy":0.0017,"dx":0.0017,"nx":28,"ny":28,"refTime":"2025-05-28T03:00:00:Z","depth":0,"parameterNumber":3,"parameterNumberName":"V-component_of_WINDS"},"data":[0,0,0,0,0,0,0,0,0,0,0,0,0,0,0,0,0,0,0,0,0,0,0,0,0,0,0,0,0,0,0,0,0,0,0,0,0,0,0,0,0,0,0,0,0,0,0,0,0,0,0,0,0,0,0,0,0,0,1.01,1.01,0,1.0089,1.0089,1.0089,1.0074,1.0074,1.0074,1.0074,1.006,1.006,1.006,0,0,0,0,0,0,0,0,0,0,0,0,0,1.0104,1.0104,1.01,1.01,1.01,1.0089,1.0089,1.0089,1.0074,1.0074,1.0074,1.0074,1.006,1.006,1.006,0,0,0,0,0,0,0,0,0,0,0,0,0,1.0098,1.0104,1.01,1.0091,1.009,1.0089,1.0089,1.0089,1.0075,1.0074,1.0074,1.0074,1.006,1.006,1.006,1.0065,0,0,1.0059,1.0059,0,0,0,0,0,0,0,0,1.0098,1.0098,1.0093,1.0092,1.0091,1.0083,1.0085,1.008,1.0075,1.008,1.0074,1.0073,1.0068,1.0067,1.0065,1.0064,1.0064,1.0059,1.0059,1.0059,1.0059,0,0,0,0,0,0,0,1.0099,1.0098,1.0095,1.0093,1.0092,1.0086,1.0085,1.0084,1.0076,1.008,1.0079,1.0078,1.0067,1.0066,1.0065,1.0063,1.0059,1.0059,1.0059,1.0058,1.0061,1.0061,0,0,0,0,0,0,1.0101,1.0099,1.0096,1.0095,1.0094,1.0087,1.0085,1.0086,1.0076,1.0074,1.0078,1.0077,1.0066,1.0065,1.0064,1.0067,1.0059,1.0058,1.0058,1.0061,1.0061,1.0061,0,0,0,0,0,0,1.0101,1.0101,1.0096,1.0097,1.0096,1.0087,1.0087,1.0086,1.0084,1.0075,1.0073,1.0079,1.0066,1.0065,1.0064,1.0067,1.0058,1.0058,1.0061,1.0061,1.0061,1.0074,0,0,0,0,0,0,1.0101,1.0101,1.0105,1.0097,1.0096,1.0098,1.0088,1.0086,1.0084,1.0083,1.0075,1.0073,1.0066,1.0064,1.0064,1.0066,1.0058,1.006,1.0061,1.0061,1.0074,1.0075,1.0076,0,0,0,0,0,1.0102,1.0109,1.0105,1.0105,1.01,1.0098,1.0097,1.0089,1.0085,1.0087,1.008,1.0073,1.0066,1.0064,1.0064,1.0066,1.006,1.0061,1.0061,1.0073,1.0075,1.0076,0,0,0,0,0,0,1.0118,1.0108,1.0103,1.0109,1.0104,1.0096,1.0099,1.0092,1.0089,1.0087,1.0077,1.0075,1.0075,1.007,1.0068,1.0068,1.0062,1.0062,1.0071,1.0073,1.0074,1.0075,1.0058,0,0,0,0,0,1.0122,1.0122,1.0113,1.0119,1.0117,1.0108,1.0107,1.0101,1.0095,1.0093,1.0087,1.0081,1.0077,1.0075,1.0071,1.0073,1.0069,1.0073,1.0075,1.0076,1.0076,1.0073,1.0074,1.0063,1.0063,1.0063,0,0,1.013,1.0125,1.0126,1.0122,1.0118,1.0116,1.0107,1.0107,1.0105,1.0093,1.0092,1.0086,1.0078,1.0078,1.0078,1.0074,1.0078,1.0077,1.0078,1.0077,1.0074,1.0075,1.0076,1.0063,1.0063,1.0063,0,0,1.0145,1.0142,1.0145,1.014,1.0134,1.0127,1.0128,1.0119,1.0115,1.0113,1.0104,1.01,1.0095,1.0089,1.0085,1.0093,1.0085,1.0092,1.0099,1.0096,1.0097,1.0098,1.0098,1.0099,1.0092,1.0092,1.0092,0,1.0156,1.0155,1.0147,1.0146,1.0143,1.0132,1.0133,1.0129,1.0121,1.0119,1.0115,1.0105,1.01,1.0096,1.0098,1.0096,1.0094,1.0093,1.0098,1.0098,1.0099,1.0099,1.01,1.0093,1.0093,1.0093,1.0093,0,1.0168,1.0167,1.017,1.0162,1.0159,1.016,1.0149,1.0147,1.014,1.0133,1.0129,1.0122,1.0114,1.0113,1.0107,1.0108,1.0105,1.01,1.0093,1.0101,1.0101,1.0101,1.0094,1.0094,1.0093,1.0093,0,0,1.0194,1.018,1.018,1.0175,1.0166,1.0164,1.0162,1.0155,1.0152,1.0146,1.0143,1.0137,1.013,1.0126,1.0118,1.0116,1.0119,1.011,1.011,1.0111,1.0116,1.012,1.012,1.0114,1.0114,1.0114,1.0116,0,1.0205,1.0203,1.0194,1.0193,1.019,1.0178,1.0176,1.0168,1.0161,1.0156,1.0147,1.0142,1.0135,1.0132,1.0129,1.012,1.012,1.012,1.0109,1.0109,1.0111,1.0121,1.0125,1.0127,1.0116,1.0116,1.0116,0,1.0219,1.0213,1.0212,1.0199,1.0198,1.0197,1.0187,1.0184,1.0174,1.0168,1.0161,1.0153,1.0147,1.0141,1.0132,1.0132,1.0127,1.0121,1.0121,1.0119,1.0113,1.0118,1.0128,1.0128,1.0117,1.0117,1.0117,0,1.0235,1.0227,1.0225,1.0221,1.0207,1.0205,1.0199,1.0189,1.0184,1.0176,1.0172,1.0163,1.0158,1.015,1.0137,1.0135,1.0129,1.0123,1.0122,1.0122,1.0122,1.0122,1.013,1.012,1.012,1.012,1.012,0,1.0248,1.0248,1.0231,1.023,1.0227,1.0215,1.0213,1.0205,1.0196,1.019,1.0179,1.0174,1.0159,1.0152,1.0142,1.0134,1.0133,1.0126,1.0124,1.0127,1.0127,1.0123,1.0122,1.012,1.012,1.012,1.012,0,1.0266,1.0256,1.0252,1.0238,1.0234,1.0233,1.022,1.0216,1.0207,1.0201,1.0198,1.0184,1.0174,1.0161,1.0148,1.0141,1.0134,1.0131,1.0138,1.0136,1.0135,1.0135,1.0141,1.014,1.0131,1.0132,1.0132,0,1.0275,1.0274,1.0259,1.0255,1.0249,1.0243,1.0238,1.0225,1.0219,1.0206,1.0203,1.0193,1.0184,1.0168,1.0156,1.0144,1.0139,1.0142,1.0138,1.014,1.0137,1.0137,1.0136,1.0143,1.0143,1.0143,1.0143,0,1.029,1.0284,1.0278,1.0268,1.0262,1.0254,1.0245,1.0242,1.0226,1.022,1.0211,1.0203,1.0189,1.0177,1.0164,1.0155,1.0146,1.0145,1.0144,1.0147,1.015,1.0146,1.0139,1.0145,1.0145,1.0145,1.0144,1.0144,1.0303,1.03,1.0288,1.028,1.0272,1.0263,1.0259,1.0248,1.024,1.0227,1.022,1.0209,1.0196,1.0177,1.0168,1.0158,1.0155,1.0154,1.0154,1.0153,1.0153,1.0152,1.0156,1.0156,1.0156,1.0156,1.0156,0,1.0316,1.0307,1.03,1.0287,1.028,1.0272,1.0261,1.0255,1.0246,1.0235,1.0226,1.0213,1.0201,1.0186,1.0173,1.0168,1.0163,1.0165,1.0164,1.0162,1.0158,1.016,1.0169,1.0169,1.0169,1.0169,1.0169,1.0169,1.0322,1.0316,1.0308,1.0297,1.0288,1.0278,1.0272,1.0263,1.0253,1.0239,1.023,1.022,1.0206,1.0192,1.0179,1.0175,1.017,1.0173,1.0167,1.0164,1.0163,1.0162,1.0163,1.0172,1.0172,1.0171,1.0171,1.0171]}]]